TimeMDT,TemperatureF,Dew PointF,Humidity,Sea Level PressureIn,VisibilityMPH,Wind Direction,Wind SpeedMPH,Gust SpeedMPH,PrecipitationIn,Events,Conditions,WindDirDegrees,DateUTC
12:15 AM,41.0,23.0,49,30.11,10.0,ENE,9.2,-,N/A,,Scattered Clouds,70,2013-05-04 06:15:00
12:35 AM,41.0,23.0,49,30.11,10.0,NE,6.9,-,N/A,,Mostly Cloudy,50,2013-05-04 06:35:00
12:55 AM,39.2,23.0,52,30.12,10.0,SW,3.5,-,N/A,,Scattered Clouds,220,2013-05-04 06:55:00
1:15 AM,41.0,23.0,49,30.12,10.0,Calm,Calm,-,N/A,,Mostly Cloudy,0,2013-05-04 07:15:00
1:35 AM,41.0,23.0,49,30.11,10.0,Calm,Calm,-,N/A,,Overcast,0,2013-05-04 07:35:00
1:55 AM,41.0,23.0,49,30.11,10.0,East,3.5,-,N/A,,Overcast,90,2013-05-04 07:55:00
2:15 AM,41.0,23.0,49,30.11,10.0,East,4.6,-,N/A,,Overcast,100,2013-05-04 08:15:00
2:35 AM,39.2,23.0,52,30.11,10.0,ESE,3.5,-,N/A,,Overcast,110,2013-05-04 08:35:00
2:55 AM,39.2,24.8,56,30.10,10.0,ENE,5.8,-,N/A,,Overcast,60,2013-05-04 08:55:00
3:15 AM,41.0,26.6,57,30.09,10.0,ENE,9.2,-,N/A,,Overcast,70,2013-05-04 09:15:00
3:35 AM,41.0,26.6,57,30.09,10.0,ENE,6.9,-,N/A,,Overcast,70,2013-05-04 09:35:00
3:55 AM,41.0,30.2,65,30.09,10.0,NNE,6.9,-,N/A,Rain,Light Rain,20,2013-05-04 09:55:00
4:15 AM,39.2,32.0,75,30.10,10.0,NE,6.9,-,N/A,,Overcast,40,2013-05-04 10:15:00
4:35 AM,37.4,32.0,81,30.10,10.0,ENE,6.9,-,N/A,,Overcast,60,2013-05-04 10:35:00
4:55 AM,37.4,30.2,75,30.09,10.0,NNE,6.9,-,N/A,,Overcast,20,2013-05-04 10:55:00
5:15 AM,37.4,30.2,75,30.09,10.0,North,9.2,-,N/A,,Scattered Clouds,10,2013-05-04 11:15:00
5:35 AM,37.4,28.4,70,30.09,10.0,NNW,3.5,-,N/A,,Mostly Cloudy,330,2013-05-04 11:35:00
5:55 AM,35.6,30.2,81,30.09,10.0,West,5.8,-,N/A,,Overcast,280,2013-05-04 11:55:00
6:15 AM,35.6,30.2,81,30.09,10.0,WNW,6.9,-,N/A,,Overcast,290,2013-05-04 12:15:00
6:35 AM,37.4,30.2,75,30.09,10.0,WNW,6.9,-,N/A,,Overcast,300,2013-05-04 12:35:00
6:55 AM,35.6,30.2,81,30.09,10.0,WNW,3.5,-,N/A,,Overcast,290,2013-05-04 12:55:00
7:15 AM,37.4,30.2,75,30.09,10.0,WNW,4.6,-,N/A,,Mostly Cloudy,290,2013-05-04 13:15:00
7:35 AM,37.4,30.2,75,30.10,10.0,West,5.8,-,N/A,,Mostly Cloudy,280,2013-05-04 13:35:00
7:55 AM,41.0,30.2,65,30.10,10.0,WNW,4.6,-,N/A,,Mostly Cloudy,290,2013-05-04 13:55:00
8:15 AM,41.0,30.2,65,30.10,10.0,WNW,6.9,-,N/A,,Scattered Clouds,300,2013-05-04 14:15:00
8:35 AM,42.8,30.2,61,30.10,10.0,NW,5.8,-,N/A,,Scattered Clouds,310,2013-05-04 14:35:00
8:55 AM,42.8,28.4,57,30.10,10.0,Calm,Calm,-,N/A,,Mostly Cloudy,0,2013-05-04 14:55:00
9:15 AM,44.6,28.4,53,30.11,10.0,Calm,Calm,-,N/A,,Overcast,0,2013-05-04 15:15:00
9:35 AM,44.6,26.6,49,30.11,10.0,South,12.7,17.3,N/A,,Overcast,180,2013-05-04 15:35:00
9:55 AM,44.6,26.6,49,30.11,10.0,South,9.2,-,N/A,,Overcast,180,2013-05-04 15:55:00
10:15 AM,44.6,26.6,49,30.11,10.0,SSW,9.2,-,N/A,,Overcast,200,2013-05-04 16:15:00
10:55 AM,48.2,26.6,43,30.11,10.0,Calm,Calm,-,N/A,,Overcast,0,2013-05-04 16:55:00
11:15 AM,46.4,26.6,46,30.11,10.0,North,8.1,-,N/A,,Overcast,10,2013-05-04 17:15:00
11:35 AM,48.2,26.6,43,30.11,10.0,East,3.5,-,N/A,,Overcast,100,2013-05-04 17:35:00
11:55 AM,50.0,24.8,37,30.11,10.0,ENE,12.7,27.6,N/A,,Overcast,70,2013-05-04 17:55:00
12:15 PM,48.2,24.8,40,30.11,10.0,ESE,9.2,-,N/A,,Overcast,110,2013-05-04 18:15:00
12:35 PM,42.8,32.0,66,30.12,7.0,North,4.6,24.2,N/A,Rain,Light Rain,10,2013-05-04 18:35:00
12:55 PM,48.2,30.2,50,30.11,10.0,East,3.5,-,N/A,,Mostly Cloudy,100,2013-05-04 18:55:00
1:15 PM,50.0,26.6,40,30.09,10.0,NE,8.1,16.1,N/A,Thunderstorm,Scattered Clouds,40,2013-05-04 19:15:00
1:35 PM,50.0,24.8,37,30.09,10.0,NE,12.7,20.7,N/A,,Mostly Cloudy,40,2013-05-04 19:35:00
1:55 PM,50.0,23.0,35,30.08,10.0,NE,6.9,11.5,N/A,,Overcast,50,2013-05-04 19:55:00
2:15 PM,50.0,23.0,35,30.07,10.0,NE,12.7,18.4,N/A,,Overcast,50,2013-05-04 20:15:00
2:35 PM,48.2,23.0,37,30.08,10.0,ESE,17.3,26.5,N/A,,Overcast,110,2013-05-04 20:35:00
2:55 PM,42.8,32.0,66,30.11,10.0,Calm,Calm,-,N/A,Rain,Light Rain,0,2013-05-04 20:55:00
3:15 PM,42.8,32.0,66,30.09,10.0,WNW,4.6,16.1,N/A,Rain,Light Rain,300,2013-05-04 21:15:00
3:35 PM,42.8,32.0,66,30.09,10.0,North,10.4,19.6,N/A,,Light Drizzle,350,2013-05-04 21:35:00
3:55 PM,41.0,33.8,76,30.11,10.0,WNW,21.9,-,N/A,Rain,Light Rain,300,2013-05-04 21:55:00
4:15 PM,41.0,32.0,70,30.13,7.0,NW,12.7,18.4,N/A,Rain,Light Rain,320,2013-05-04 22:15:00
4:35 PM,42.8,33.8,70,30.11,10.0,NNE,10.4,18.4,N/A,Rain,Light Rain,20,2013-05-04 22:35:00
4:55 PM,46.4,32.0,57,30.10,10.0,NNE,12.7,18.4,N/A,,Scattered Clouds,20,2013-05-04 22:55:00
5:15 PM,48.2,30.2,50,30.09,10.0,NE,15.0,19.6,N/A,,Clear,40,2013-05-04 23:15:00
5:35 PM,46.4,28.4,50,30.09,10.0,NE,8.1,11.5,N/A,,Scattered Clouds,50,2013-05-04 23:35:00
5:55 PM,46.4,28.4,50,30.11,10.0,NE,5.8,-,N/A,,Overcast,40,2013-05-04 23:55:00
6:15 PM,46.4,26.6,46,30.11,10.0,NE,9.2,-,N/A,,Overcast,40,2013-05-05 00:15:00
6:35 PM,46.4,26.6,46,30.11,10.0,NE,13.8,18.4,N/A,,Overcast,50,2013-05-05 00:35:00
6:55 PM,44.6,32.0,61,30.13,10.0,South,15.0,25.3,N/A,,Overcast,190,2013-05-05 00:55:00
7:15 PM,41.0,32.0,70,30.13,10.0,South,12.7,19.6,N/A,,Overcast,190,2013-05-05 01:15:00
7:35 PM,41.0,32.0,70,30.14,10.0,SSW,3.5,-,N/A,,Overcast,210,2013-05-05 01:35:00
7:55 PM,41.0,32.0,70,30.14,10.0,NW,3.5,-,N/A,,Overcast,320,2013-05-05 01:55:00
8:15 PM,41.0,33.8,76,30.14,10.0,NNW,4.6,-,N/A,,Overcast,340,2013-05-05 02:15:00
8:35 PM,41.0,32.0,70,30.13,10.0,North,5.8,-,N/A,,Overcast,350,2013-05-05 02:35:00
8:55 PM,37.4,32.0,81,30.13,10.0,NW,8.1,-,N/A,,Scattered Clouds,320,2013-05-05 02:55:00
9:15 PM,37.4,33.8,87,30.13,10.0,WNW,5.8,-,N/A,,Clear,300,2013-05-05 03:15:00
9:35 PM,37.4,32.0,81,30.14,10.0,WNW,4.6,-,N/A,,Mostly Cloudy,300,2013-05-05 03:35:00
9:55 PM,37.4,32.0,81,30.15,10.0,NNW,6.9,-,N/A,,Overcast,330,2013-05-05 03:55:00
10:15 PM,37.4,32.0,81,30.16,10.0,NW,8.1,-,N/A,,Overcast,310,2013-05-05 04:15:00
10:35 PM,37.4,32.0,81,30.16,10.0,NW,6.9,-,N/A,,Overcast,320,2013-05-05 04:35:00
10:55 PM,37.4,32.0,81,30.15,10.0,NW,5.8,-,N/A,,Overcast,310,2013-05-05 04:55:00
11:15 PM,37.4,33.8,87,30.16,10.0,WNW,3.5,-,N/A,,Mostly Cloudy,290,2013-05-05 05:15:00
11:35 PM,37.4,33.8,87,30.15,10.0,WNW,3.5,-,N/A,,Overcast,300,2013-05-05 05:35:00
11:55 PM,35.6,33.8,93,30.16,10.0,WNW,4.6,-,N/A,,Overcast,290,2013-05-05 05:55:00